GFSCGP_prec_precacc_159.txt.gz
Total_Precipitation_Accumulation
0.00 0.00 0.00 0.00 0.00 0.01 0.10 0.31 1.14 1.41 2.06 3.24 2.98 2.28 1.36 1.15 0.87 0.90 0.57 0.14 0.06 0.09 0.04 0.01 0.07 0.10 0.03 0.02 0.02 0.10 0.23 0.26 0.22 0.10 0.11 0.16 0.13 0.07 0.12 0.31 0.23 0.36 0.56 0.48
0.00 0.00 0.00 0.00 0.00 0.02 0.03 0.34 0.91 1.05 1.32 2.15 3.27 2.49 1.58 1.28 0.74 0.59 1.01 0.41 0.16 0.16 0.13 0.01 0.01 0.02 0.03 0.01 0.01 0.15 0.28 0.25 0.17 0.05 0.06 0.13 0.24 0.15 0.41 0.42 0.44 0.41 0.28 0.34
0.00 0.00 0.00 0.00 0.00 0.00 0.06 0.27 0.62 0.88 0.57 1.04 2.65 3.60 2.40 1.85 1.34 1.09 0.58 0.45 0.18 0.09 0.15 0.12 0.06 0.02 0.02 0.00 0.00 0.01 0.10 0.18 0.21 0.10 0.10 0.37 0.78 0.84 0.72 0.57 0.32 0.16 0.17 0.17
0.00 0.00 0.00 0.00 0.00 0.00 0.11 0.20 0.62 1.36 0.78 0.72 0.50 2.20 2.68 1.81 1.84 1.65 0.69 0.41 0.17 0.11 0.25 0.13 0.04 0.02 0.00 0.00 0.01 0.00 0.05 0.15 0.16 0.24 0.16 0.29 0.32 0.45 0.34 0.26 0.20 0.16 0.19 0.21
0.00 0.00 0.00 0.00 0.00 0.01 0.03 0.17 0.56 0.67 0.62 0.25 0.15 0.68 1.53 1.54 1.66 1.52 0.80 0.32 0.18 0.18 0.17 0.11 0.06 0.04 0.02 0.00 0.01 0.00 0.04 0.20 0.16 0.31 0.47 0.34 0.16 0.22 0.35 0.29 0.32 0.40 0.41 0.39
0.00 0.00 0.00 0.00 0.00 0.01 0.02 0.08 0.32 0.59 0.44 0.33 0.09 0.23 0.92 1.36 0.90 0.81 0.55 0.30 0.16 0.17 0.14 0.09 0.22 0.12 0.12 0.04 0.00 0.01 0.01 0.10 0.23 0.29 0.30 0.43 0.50 0.63 0.45 0.49 0.34 0.21 0.14 0.19
0.00 0.00 0.00 0.00 0.00 0.00 0.01 0.05 0.34 0.41 0.31 0.38 0.15 0.23 0.41 0.70 0.53 0.34 0.35 0.31 0.36 0.23 0.18 0.10 0.19 0.09 0.07 0.05 0.06 0.03 0.01 0.02 0.06 0.06 0.13 0.21 0.50 0.73 0.84 0.63 0.25 0.27 0.23 0.13
0.00 0.00 0.00 0.00 0.00 0.00 0.00 0.01 0.13 0.29 0.32 0.44 0.32 0.65 0.28 0.21 0.24 0.38 0.55 0.66 1.12 0.76 0.37 0.25 0.27 0.18 0.06 0.02 0.05 0.02 0.07 0.01 0.01 0.03 0.09 0.25 0.41 0.37 0.30 0.28 0.36 0.20 0.17 0.17
0.00 0.00 0.00 0.00 0.00 0.00 0.00 0.01 0.04 0.09 0.15 0.31 0.34 0.61 0.29 0.14 0.11 0.10 0.41 0.74 1.00 0.91 0.55 0.35 0.46 0.44 0.15 0.04 0.05 0.04 0.06 0.05 0.01 0.00 0.05 0.14 0.17 0.14 0.32 0.46 0.55 0.30 0.20 0.29
0.00 0.00 0.00 0.00 0.00 0.01 0.00 0.01 0.03 0.04 0.20 0.21 0.47 0.97 0.95 0.26 0.49 0.23 0.23 0.36 0.40 0.74 0.92 0.69 0.64 0.60 0.55 0.29 0.18 0.18 0.26 0.24 0.07 0.02 0.05 0.05 0.04 0.04 0.27 0.46 0.51 0.38 0.62 0.91
0.01 0.00 0.01 0.00 0.02 0.03 0.01 0.00 0.01 0.01 0.08 0.28 0.50 0.84 0.89 0.42 0.64 0.56 0.44 0.27 0.23 0.25 0.73 1.40 1.92 2.30 1.82 1.50 1.17 0.70 0.62 0.58 0.38 0.12 0.11 0.15 0.10 0.07 0.17 0.29 0.31 0.49 0.63 0.66
0.02 0.01 0.01 0.01 0.03 0.09 0.12 0.07 0.06 0.02 0.16 0.21 0.29 0.69 0.74 0.45 0.54 0.63 1.38 0.79 0.62 0.34 0.35 0.95 1.50 2.81 4.30 2.75 2.81 3.16 1.63 1.17 0.77 0.42 0.26 0.11 0.16 0.17 0.18 0.12 0.17 0.41 0.53 0.60
0.09 0.06 0.02 0.05 0.07 0.03 0.00 0.02 0.17 0.14 0.14 0.07 0.12 0.22 0.32 0.39 0.66 0.83 1.48 1.43 0.75 0.80 0.58 0.54 0.84 1.22 2.37 2.18 1.91 3.78 3.91 2.78 2.12 1.22 0.78 0.59 0.73 0.31 0.20 0.17 0.23 0.29 0.37 0.43
0.19 0.06 0.01 0.03 0.08 0.07 0.02 0.02 0.00 0.05 0.09 0.03 0.03 0.12 0.36 0.39 0.50 0.28 0.38 1.12 0.89 0.65 0.89 0.70 1.06 1.80 2.38 2.80 2.86 3.47 2.98 2.96 3.65 2.34 1.70 1.35 1.13 0.67 0.56 0.40 0.29 0.30 0.32 0.33
0.11 0.02 0.00 0.00 0.00 0.00 0.02 0.02 0.02 0.01 0.01 0.06 0.36 0.13 0.66 0.36 0.17 0.09 0.20 0.31 0.51 0.76 0.90 0.95 1.08 1.25 2.45 3.49 2.98 3.79 3.90 3.12 2.49 2.61 2.99 2.69 2.02 1.55 1.45 1.40 1.16 0.73 0.70 0.56
0.11 0.04 0.00 0.00 0.00 0.00 0.00 0.00 0.01 0.04 0.12 0.07 0.26 0.50 0.31 0.43 0.35 0.33 0.40 0.69 0.78 0.94 0.87 1.00 1.43 1.49 1.59 1.91 2.03 2.83 4.26 4.81 3.30 2.15 1.90 2.48 2.67 2.73 2.59 2.61 2.05 2.18 1.75 1.24
0.17 0.16 0.15 0.05 0.01 0.00 0.01 0.00 0.01 0.00 0.03 0.03 0.13 0.63 0.59 0.61 0.65 0.73 0.53 0.89 1.52 1.46 1.29 1.05 1.09 1.48 1.37 1.31 1.16 1.17 1.71 2.78 3.48 3.56 2.67 2.26 2.18 2.33 2.27 2.35 2.60 2.80 2.41 2.25
0.14 0.22 0.23 0.15 0.13 0.18 0.07 0.05 0.02 0.02 0.04 0.17 0.34 0.29 0.46 0.49 0.19 0.18 0.19 0.25 0.69 0.98 1.43 1.40 1.21 1.27 1.19 1.49 1.68 1.24 1.17 1.24 1.67 2.29 2.96 2.91 2.16 2.30 2.36 2.14 1.78 1.58 1.89 2.24
0.07 0.22 0.25 0.17 0.32 0.25 0.11 0.07 0.04 0.04 0.16 0.20 0.22 0.34 0.82 0.67 0.42 0.21 0.19 0.18 0.22 0.46 0.48 0.86 1.33 1.33 1.68 1.60 1.84 2.05 1.90 1.37 1.52 1.54 1.73 2.08 2.41 2.44 2.24 2.17 2.35 2.27 1.78 1.47
0.14 0.27 0.37 0.25 0.62 0.79 0.60 0.21 0.03 0.02 0.26 0.39 0.29 0.33 0.97 0.63 0.68 0.39 0.14 0.10 0.12 0.19 0.24 0.25 0.35 0.74 1.15 1.89 2.05 2.26 2.60 2.07 1.54 1.53 1.67 1.59 1.70 2.18 2.47 2.72 2.50 2.32 2.60 2.47
0.53 0.52 0.44 0.38 0.70 0.71 0.42 0.19 0.04 0.17 0.28 0.20 0.22 0.47 0.65 0.50 0.47 0.55 0.25 0.17 0.05 0.04 0.06 0.08 0.09 0.22 0.53 0.80 1.20 1.67 1.55 1.68 2.21 2.22 2.17 1.93 1.79 1.85 1.87 1.97 1.71 1.48 1.54 1.64
0.79 0.94 0.69 0.55 0.74 0.90 0.50 0.44 0.33 0.25 0.08 0.13 0.22 0.44 0.71 0.59 0.61 0.44 0.30 0.14 0.06 0.02 0.03 0.04 0.06 0.18 0.25 0.44 0.75 0.97 1.19 1.17 1.79 2.39 2.91 3.21 3.25 3.06 2.46 2.22 2.59 2.44 2.08 2.04
0.57 0.55 0.62 0.72 0.86 0.86 0.54 0.43 0.16 0.05 0.10 0.14 0.15 0.32 0.60 0.61 0.47 0.43 0.34 0.14 0.09 0.06 0.04 0.04 0.08 0.11 0.23 0.28 0.33 0.46 0.66 0.96 1.01 1.37 1.93 2.11 2.64 2.83 2.57 2.68 2.88 2.62 2.21 1.88
0.64 0.50 0.57 0.62 0.60 0.67 0.62 0.45 0.37 0.16 0.16 0.16 0.16 0.22 0.37 0.37 0.36 0.28 0.30 0.26 0.14 0.09 0.07 0.08 0.07 0.08 0.09 0.17 0.26 0.28 0.34 0.44 0.43 0.56 0.72 0.73 0.72 0.88 0.90 0.86 0.91 1.09 1.13 1.12
1.41 1.15 0.90 0.78 0.90 1.04 1.01 0.65 0.51 0.52 0.44 0.28 0.29 0.29 0.29 0.30 0.34 0.36 0.31 0.32 0.30 0.20 0.14 0.10 0.06 0.04 0.04 0.10 0.26 0.30 0.41 0.58 0.50 0.65 0.47 0.48 0.57 0.71 0.99 1.20 1.04 0.81 0.73 0.82
2.19 1.72 1.53 1.54 1.41 1.54 1.20 0.85 0.53 0.52 0.54 0.52 0.38 0.46 0.52 0.50 0.44 0.41 0.44 0.41 0.39 0.44 0.36 0.47 0.46 0.45 0.43 0.40 0.41 0.45 0.51 0.66 0.63 0.62 0.61 0.65 0.59 0.63 0.77 0.84 1.05 1.40 1.65 1.67

GFSCGP_prec_precacc_162.txt.gz
Total_Precipitation_Accumulation
0.00 0.00 0.00 0.00 0.00 0.01 0.17 0.41 1.19 1.55 2.06 3.25 2.99 2.28 1.36 1.15 0.87 1.17 0.75 0.15 0.06 0.09 0.05 0.02 0.07 0.10 0.03 0.02 0.02 0.10 0.23 0.27 0.22 0.10 0.11 0.16 0.13 0.07 0.12 0.31 0.24 0.36 0.56 0.48
0.00 0.00 0.00 0.00 0.00 0.02 0.03 0.37 0.91 1.06 1.32 2.17 3.41 2.50 1.58 1.28 0.74 0.61 1.02 0.41 0.17 0.16 0.15 0.02 0.01 0.03 0.03 0.01 0.01 0.15 0.28 0.26 0.17 0.05 0.06 0.13 0.24 0.15 0.41 0.42 0.44 0.41 0.28 0.34
0.00 0.00 0.00 0.00 0.00 0.00 0.06 0.27 0.62 0.88 0.57 1.04 2.70 3.67 2.49 1.88 1.34 1.10 0.58 0.45 0.18 0.09 0.16 0.18 0.08 0.02 0.03 0.01 0.00 0.01 0.11 0.21 0.21 0.10 0.10 0.37 0.78 0.84 0.72 0.57 0.32 0.16 0.17 0.17
0.00 0.00 0.00 0.00 0.00 0.00 0.11 0.20 0.62 1.36 0.78 0.72 0.51 2.37 3.40 2.14 1.88 1.65 0.69 0.41 0.20 0.11 0.25 0.35 0.18 0.04 0.00 0.01 0.03 0.00 0.07 0.20 0.16 0.24 0.16 0.29 0.32 0.45 0.34 0.26 0.20 0.16 0.19 0.21
0.00 0.00 0.00 0.00 0.00 0.01 0.03 0.17 0.56 0.67 0.62 0.25 0.15 0.71 1.74 1.99 1.73 1.52 0.80 0.32 0.18 0.19 0.17 0.11 0.09 0.07 0.04 0.01 0.15 0.04 0.04 0.25 0.23 0.32 0.50 0.37 0.16 0.22 0.35 0.29 0.32 0.41 0.42 0.39
0.00 0.00 0.00 0.00 0.00 0.01 0.02 0.08 0.32 0.59 0.44 0.33 0.09 0.25 0.98 1.41 0.91 1.08 0.67 0.31 0.17 0.19 0.15 0.09 0.22 0.13 0.18 0.24 0.24 0.05 0.04 0.13 0.26 0.30 0.37 0.51 0.53 0.64 0.46 0.49 0.34 0.21 0.14 0.19
0.00 0.00 0.00 0.00 0.00 0.00 0.01 0.05 0.34 0.41 0.31 0.38 0.15 0.23 0.43 0.72 0.53 0.50 0.73 0.41 0.37 0.25 0.20 0.11 0.19 0.09 0.07 0.15 0.14 0.09 0.05 0.04 0.08 0.06 0.16 0.25 0.55 0.78 0.86 0.63 0.26 0.27 0.23 0.13
0.00 0.00 0.00 0.00 0.00 0.00 0.00 0.01 0.13 0.29 0.34 0.45 0.33 0.65 0.28 0.21 0.24 0.38 0.56 0.66 1.12 0.77 0.39 0.26 0.28 0.18 0.06 0.02 0.06 0.04 0.09 0.02 0.01 0.03 0.11 0.28 0.46 0.39 0.31 0.28 0.36 0.20 0.17 0.17
0.00 0.00 0.00 0.00 0.00 0.00 0.00 0.01 0.04 0.09 0.17 0.36 0.36 0.62 0.29 0.14 0.11 0.10 0.41 0.74 1.00 0.91 0.55 0.36 0.47 0.44 0.15 0.04 0.05 0.05 0.06 0.05 0.01 0.01 0.09 0.20 0.21 0.16 0.33 0.46 0.55 0.30 0.20 0.29
0.00 0.00 0.00 0.00 0.00 0.01 0.00 0.01 0.03 0.04 0.20 0.22 0.49 0.97 0.95 0.26 0.49 0.23 0.23 0.36 0.40 0.74 0.92 0.69 0.64 0.60 0.55 0.29 0.19 0.20 0.27 0.24 0.07 0.03 0.06 0.06 0.05 0.06 0.32 0.49 0.53 0.38 0.62 0.92
0.01 0.00 0.01 0.00 0.02 0.03 0.01 0.00 0.01 0.01 0.08 0.28 0.50 0.84 0.89 0.42 0.64 0.56 0.44 0.27 0.23 0.25 0.73 1.40 1.92 2.30 1.82 1.50 1.17 0.72 0.68 0.59 0.38 0.12 0.12 0.15 0.10 0.07 0.19 0.33 0.35 0.49 0.66 0.74
0.02 0.01 0.01 0.01 0.03 0.09 0.12 0.07 0.06 0.02 0.16 0.21 0.29 0.69 0.74 0.45 0.54 0.63 1.38 0.79 0.62 0.34 0.35 0.95 1.50 2.81 4.30 2.75 2.81 3.16 1.63 1.17 0.77 0.42 0.26 0.11 0.16 0.18 0.19 0.13 0.23 0.46 0.56 0.64
0.09 0.06 0.02 0.05 0.07 0.03 0.00 0.02 0.17 0.14 0.14 0.07 0.12 0.22 0.32 0.39 0.66 0.83 1.48 1.43 0.75 0.80 0.58 0.54 0.84 1.22 2.37 2.18 1.91 3.78 3.91 2.78 2.12 1.22 0.78 0.59 0.73 0.32 0.20 0.17 0.24 0.32 0.39 0.47
0.19 0.06 0.01 0.03 0.09 0.08 0.02 0.02 0.00 0.05 0.09 0.03 0.03 0.12 0.37 0.39 0.50 0.28 0.38 1.12 0.89 0.65 0.89 0.70 1.06 1.80 2.38 2.80 2.86 3.50 2.99 2.96 3.65 2.40 1.73 1.36 1.16 0.67 0.56 0.40 0.29 0.31 0.35 0.37
0.11 0.02 0.00 0.00 0.00 0.00 0.03 0.02 0.02 0.01 0.01 0.06 0.36 0.13 0.66 0.36 0.17 0.09 0.20 0.31 0.51 0.76 0.90 0.95 1.08 1.25 2.45 3.50 2.99 3.86 3.96 3.19 2.52 2.68 3.22 3.04 2.52 1.85 1.57 1.42 1.18 0.77 0.79 0.63
0.11 0.04 0.00 0.00 0.00 0.00 0.01 0.01 0.01 0.04 0.12 0.07 0.26 0.50 0.31 0.43 0.35 0.33 0.40 0.69 0.78 0.94 0.87 1.00 1.43 1.49 1.59 1.92 2.06 2.91 4.34 4.89 3.40 2.30 2.03 2.72 3.29 3.72 3.04 2.77 2.15 2.31 1.85 1.32
0.17 0.16 0.15 0.05 0.01 0.01 0.06 0.00 0.01 0.00 0.03 0.03 0.13 0.63 0.59 0.61 0.65 0.73 0.53 0.89 1.52 1.46 1.29 1.05 1.09 1.48 1.37 1.31 1.19 1.23 1.82 2.92 3.67 3.78 2.88 2.50 2.58 2.85 2.65 2.53 2.77 2.90 2.53 2.41
0.14 0.22 0.23 0.15 0.13 0.18 0.07 0.05 0.02 0.02 0.04 0.17 0.34 0.29 0.46 0.49 0.19 0.18 0.19 0.25 0.69 0.98 1.43 1.40 1.21 1.27 1.19 1.49 1.69 1.27 1.20 1.31 1.80 2.49 3.22 3.35 2.73 2.76 2.65 2.31 1.93 1.66 2.10 2.52
0.07 0.22 0.25 0.17 0.32 0.25 0.11 0.07 0.04 0.04 0.16 0.20 0.22 0.34 0.82 0.67 0.42 0.21 0.19 0.18 0.22 0.46 0.48 0.86 1.33 1.33 1.68 1.60 1.84 2.05 1.90 1.38 1.58 1.67 2.08 3.09 4.02 3.64 2.85 2.58 2.47 2.36 1.86 1.53
0.14 0.27 0.37 0.25 0.62 0.79 0.60 0.21 0.03 0.02 0.26 0.39 0.29 0.33 0.97 0.63 0.68 0.39 0.14 0.10 0.12 0.19 0.24 0.25 0.35 0.74 1.15 1.89 2.05 2.26 2.60 2.07 1.55 1.55 1.69 1.68 1.93 2.60 3.00 3.23 2.76 2.42 2.66 2.53
0.53 0.52 0.44 0.38 0.70 0.71 0.43 0.20 0.04 0.18 0.28 0.20 0.22 0.47 0.65 0.50 0.47 0.55 0.25 0.17 0.05 0.04 0.06 0.08 0.09 0.22 0.53 0.80 1.20 1.67 1.56 1.69 2.24 2.26 2.19 1.93 1.83 1.95 1.99 2.16 2.00 1.58 1.56 1.64
0.79 0.94 0.69 0.55 0.74 0.90 0.50 0.44 0.33 0.25 0.08 0.13 0.22 0.44 0.71 0.59 0.61 0.44 0.30 0.14 0.06 0.02 0.03 0.04 0.06 0.18 0.25 0.45 0.75 0.98 1.20 1.20 1.86 2.46 2.96 3.23 3.27 3.09 2.49 2.25 2.61 2.45 2.09 2.05
0.57 0.56 0.62 0.72 0.86 0.86 0.54 0.43 0.16 0.05 0.10 0.14 0.15 0.32 0.60 0.61 0.47 0.43 0.34 0.14 0.09 0.06 0.04 0.04 0.08 0.11 0.23 0.28 0.33 0.47 0.67 0.96 1.03 1.38 1.93 2.11 2.65 2.88 2.63 2.76 2.92 2.62 2.21 1.88
0.66 0.51 0.57 0.62 0.60 0.67 0.62 0.45 0.37 0.16 0.16 0.16 0.16 0.22 0.37 0.37 0.36 0.28 0.30 0.26 0.14 0.09 0.07 0.08 0.07 0.08 0.09 0.17 0.26 0.29 0.34 0.44 0.44 0.56 0.72 0.73 0.72 0.88 0.92 0.92 1.00 1.15 1.19 1.13
1.63 1.25 0.94 0.78 0.90 1.04 1.01 0.65 0.51 0.52 0.44 0.28 0.29 0.29 0.29 0.30 0.34 0.36 0.31 0.32 0.30 0.20 0.14 0.10 0.06 0.04 0.04 0.10 0.26 0.31 0.41 0.59 0.51 0.65 0.47 0.48 0.57 0.71 0.99 1.21 1.05 0.81 0.73 0.83
2.34 2.08 1.87 1.61 1.42 1.55 1.20 0.87 0.53 0.52 0.54 0.52 0.38 0.46 0.52 0.50 0.44 0.41 0.44 0.41 0.39 0.44 0.36 0.47 0.46 0.45 0.43 0.40 0.41 0.46 0.52 0.67 0.63 0.62 0.62 0.65 0.60 0.63 0.77 0.84 1.05 1.40 1.65 1.67

GFSCGP_prec_precacc_168.txt.gz
Total_Precipitation_Accumulation
0.00 0.00 0.00 0.00 0.00 0.01 0.17 0.41 1.20 1.86 2.16 3.32 3.07 2.32 1.37 1.15 0.90 1.22 0.81 0.16 0.06 0.09 0.06 0.02 0.07 0.10 0.03 0.02 0.03 0.10 0.24 0.27 0.22 0.10 0.11 0.16 0.13 0.09 0.14 0.33 0.33 0.41 0.61 0.53
0.00 0.00 0.00 0.00 0.00 0.02 0.03 0.37 0.92 1.22 1.44 2.30 3.64 2.77 1.70 1.29 0.77 0.71 1.12 0.45 0.19 0.16 0.15 0.03 0.02 0.03 0.03 0.01 0.01 0.15 0.28 0.26 0.17 0.05 0.06 0.14 0.26 0.17 0.45 0.47 0.47 0.45 0.31 0.36
0.00 0.00 0.00 0.00 0.00 0.00 0.06 0.27 0.62 0.89 0.63 1.23 2.90 3.97 3.20 1.98 1.36 1.16 0.67 0.49 0.22 0.10 0.17 0.19 0.10 0.03 0.03 0.01 0.00 0.01 0.12 0.21 0.21 0.10 0.10 0.39 0.79 0.87 0.77 0.63 0.33 0.18 0.18 0.18
0.00 0.00 0.00 0.00 0.00 0.00 0.11 0.20 0.62 1.36 0.79 0.77 0.55 2.50 3.86 2.34 1.90 1.67 0.72 0.42 0.22 0.14 0.26 0.35 0.20 0.06 0.01 0.02 0.03 0.01 0.09 0.20 0.16 0.25 0.16 0.31 0.33 0.45 0.34 0.27 0.20 0.18 0.20 0.21
0.00 0.00 0.00 0.00 0.00 0.01 0.03 0.17 0.56 0.67 0.62 0.25 0.16 0.73 1.74 2.07 1.75 1.57 0.84 0.33 0.20 0.21 0.17 0.12 0.10 0.09 0.12 0.08 0.33 0.24 0.13 0.26 0.23 0.33 0.51 0.37 0.17 0.23 0.36 0.29 0.33 0.41 0.43 0.39
0.00 0.00 0.00 0.00 0.00 0.01 0.02 0.08 0.32 0.59 0.44 0.33 0.09 0.26 0.98 1.41 0.91 1.19 0.85 0.36 0.18 0.21 0.15 0.13 0.23 0.15 0.21 0.47 0.80 0.29 0.15 0.16 0.27 0.31 0.39 0.52 0.53 0.64 0.48 0.55 0.37 0.21 0.14 0.19
0.00 0.00 0.00 0.00 0.00 0.00 0.01 0.05 0.34 0.41 0.31 0.39 0.16 0.25 0.46 0.72 0.54 0.59 1.09 0.55 0.41 0.27 0.25 0.17 0.21 0.10 0.08 0.16 0.46 0.19 0.13 0.10 0.08 0.08 0.17 0.26 0.55 0.80 0.86 0.64 0.27 0.27 0.23 0.13
0.00 0.00 0.00 0.00 0.00 0.00 0.00 0.01 0.13 0.29 0.34 0.45 0.33 0.67 0.32 0.21 0.25 0.41 0.56 0.69 1.16 0.80 0.46 0.31 0.33 0.20 0.07 0.03 0.11 0.09 0.15 0.06 0.02 0.03 0.11 0.29 0.50 0.42 0.31 0.29 0.38 0.20 0.17 0.18
0.00 0.00 0.00 0.00 0.00 0.00 0.00 0.01 0.04 0.09 0.17 0.36 0.36 0.62 0.30 0.14 0.12 0.11 0.41 0.78 1.02 0.93 0.58 0.38 0.50 0.46 0.15 0.05 0.07 0.21 0.52 0.24 0.08 0.01 0.09 0.21 0.22 0.17 0.33 0.46 0.57 0.31 0.21 0.29
0.00 0.00 0.00 0.00 0.00 0.01 0.00 0.01 0.03 0.04 0.20 0.22 0.50 0.98 0.96 0.27 0.50 0.24 0.23 0.36 0.41 0.76 0.94 0.72 0.67 0.64 0.57 0.32 0.22 0.27 0.37 0.36 0.13 0.04 0.06 0.06 0.05 0.06 0.32 0.50 0.55 0.42 0.64 0.93
0.01 0.00 0.01 0.00 0.02 0.03 0.01 0.00 0.01 0.01 0.08 0.28 0.51 0.87 0.90 0.45 0.70 0.58 0.44 0.27 0.24 0.25 0.73 1.41 1.95 2.33 1.85 1.54 1.19 0.75 0.78 0.72 0.51 0.20 0.15 0.16 0.10 0.07 0.21 0.33 0.38 0.54 0.72 0.76
0.02 0.01 0.01 0.01 0.03 0.09 0.12 0.07 0.06 0.02 0.16 0.21 0.29 0.69 0.75 0.45 0.55 0.65 1.39 0.81 0.65 0.35 0.35 0.95 1.52 2.83 4.33 2.80 2.82 3.16 1.65 1.21 0.88 0.44 0.35 0.15 0.17 0.18 0.20 0.13 0.24 0.48 0.65 0.73
0.09 0.06 0.02 0.05 0.07 0.03 0.00 0.02 0.17 0.14 0.14 0.07 0.12 0.22 0.32 0.39 0.66 0.84 1.48 1.44 0.75 0.80 0.58 0.54 0.84 1.23 2.40 2.20 1.92 3.81 3.94 2.80 2.15 1.27 0.83 0.70 0.76 0.32 0.20 0.17 0.24 0.33 0.43 0.54
0.19 0.06 0.01 0.03 0.09 0.08 0.02 0.02 0.00 0.05 0.09 0.03 0.04 0.13 0.37 0.39 0.50 0.28 0.38 1.12 0.90 0.65 0.89 0.70 1.06 1.81 2.41 2.84 2.90 3.54 3.03 3.03 3.72 2.61 2.20 1.73 1.52 0.94 0.62 0.44 0.30 0.31 0.36 0.39
0.11 0.02 0.00 0.00 0.00 0.00 0.03 0.03 0.02 0.01 0.01 0.06 0.36 0.14 0.66 0.36 0.17 0.09 0.20 0.31 0.51 0.76 0.90 0.95 1.08 1.25 2.45 3.51 3.00 3.87 3.97 3.25 2.69 3.07 4.03 3.96 3.21 2.56 2.21 2.09 1.62 0.95 0.88 0.69
0.11 0.04 0.00 0.00 0.00 0.00 0.01 0.01 0.01 0.04 0.12 0.07 0.26 0.50 0.31 0.43 0.35 0.33 0.40 0.69 0.78 0.94 0.87 1.00 1.43 1.49 1.59 1.92 2.06 2.91 4.35 4.90 3.46 2.55 2.40 3.19 3.99 4.34 3.54 3.31 2.67 2.81 2.23 1.54
0.17 0.16 0.15 0.05 0.01 0.01 0.06 0.01 0.01 0.01 0.03 0.03 0.13 0.63 0.60 0.61 0.65 0.73 0.53 0.89 1.52 1.46 1.29 1.05 1.09 1.48 1.37 1.31 1.19 1.23 1.84 2.99 3.74 3.97 3.17 2.87 3.12 4.25 4.22 3.05 3.15 3.36 2.92 2.70
0.14 0.22 0.23 0.15 0.13 0.18 0.07 0.05 0.02 0.02 0.05 0.17 0.35 0.29 0.46 0.49 0.19 0.18 0.19 0.25 0.69 0.98 1.43 1.40 1.21 1.27 1.19 1.49 1.69 1.27 1.21 1.34 1.89 2.72 3.42 3.59 2.99 3.54 3.95 3.06 2.39 2.12 2.46 2.84
0.07 0.22 0.25 0.17 0.32 0.25 0.11 0.08 0.04 0.05 0.16 0.20 0.22 0.34 0.82 0.67 0.42 0.21 0.19 0.18 0.22 0.46 0.48 0.86 1.33 1.33 1.68 1.60 1.84 2.05 1.90 1.38 1.58 1.72 2.21 3.27 4.27 4.25 4.22 4.45 3.69 3.04 2.54 2.04
0.14 0.27 0.37 0.25 0.62 0.79 0.60 0.21 0.03 0.03 0.26 0.39 0.29 0.34 0.97 0.63 0.68 0.39 0.14 0.10 0.12 0.19 0.24 0.25 0.35 0.74 1.15 1.89 2.05 2.26 2.60 2.07 1.55 1.55 1.70 1.69 1.94 2.68 3.23 3.80 3.92 3.64 3.91 3.59
0.53 0.52 0.44 0.38 0.70 0.71 0.43 0.20 0.04 0.19 0.29 0.20 0.22 0.47 0.65 0.50 0.47 0.55 0.25 0.17 0.05 0.04 0.06 0.08 0.09 0.22 0.53 0.80 1.20 1.67 1.56 1.70 2.25 2.27 2.19 1.93 1.83 1.95 2.01 2.23 2.36 2.73 2.58 2.43
0.79 0.94 0.69 0.55 0.74 0.90 0.50 0.44 0.33 0.25 0.09 0.14 0.22 0.44 0.71 0.59 0.61 0.44 0.30 0.14 0.07 0.04 0.06 0.04 0.06 0.18 0.25 0.45 0.75 0.99 1.22 1.21 1.88 2.48 2.98 3.25 3.27 3.09 2.50 2.28 2.72 2.72 2.35 2.27
0.60 0.58 0.62 0.72 0.86 0.86 0.54 0.43 0.16 0.06 0.10 0.14 0.16 0.32 0.60 0.61 0.47 0.43 0.34 0.14 0.09 0.06 0.04 0.04 0.08 0.11 0.23 0.28 0.33 0.48 0.69 0.97 1.03 1.38 1.93 2.12 2.65 2.88 2.63 2.76 2.93 2.66 2.29 1.93
0.74 0.57 0.67 0.67 0.61 0.68 0.63 0.46 0.38 0.17 0.17 0.16 0.16 0.22 0.37 0.37 0.36 0.28 0.30 0.26 0.14 0.09 0.07 0.08 0.07 0.08 0.09 0.17 0.26 0.29 0.35 0.45 0.45 0.56 0.73 0.73 0.73 0.88 0.92 0.92 1.01 1.16 1.19 1.13
1.68 1.32 0.99 0.88 0.97 1.06 1.04 0.69 0.51 0.52 0.44 0.29 0.32 0.29 0.29 0.30 0.34 0.36 0.31 0.32 0.30 0.20 0.14 0.10 0.06 0.04 0.04 0.10 0.26 0.31 0.42 0.60 0.51 0.65 0.47 0.48 0.57 0.71 0.99 1.21 1.05 0.81 0.73 0.83
2.34 2.11 1.91 1.65 1.50 1.64 1.24 0.98 0.60 0.53 0.55 0.53 0.46 0.57 0.57 0.50 0.44 0.41 0.44 0.41 0.39 0.44 0.36 0.47 0.46 0.45 0.43 0.40 0.41 0.46 0.53 0.68 0.63 0.63 0.63 0.66 0.60 0.63 0.77 0.84 1.05 1.40 1.65 1.67

GFSCGP_prec_precacc_171.txt.gz
Total_Precipitation_Accumulation
0.00 0.00 0.00 0.00 0.00 0.01 0.17 0.41 1.20 1.86 2.16 3.33 3.08 2.32 1.37 1.15 0.90 1.23 0.83 0.17 0.06 0.10 0.06 0.02 0.07 0.10 0.03 0.02 0.03 0.10 0.24 0.27 0.22 0.10 0.11 0.16 0.13 0.09 0.14 0.33 0.33 0.41 0.61 0.53
0.00 0.00 0.00 0.00 0.00 0.02 0.03 0.37 0.92 1.22 1.44 2.31 3.67 2.77 1.70 1.29 0.77 0.71 1.12 0.46 0.19 0.17 0.16 0.03 0.02 0.03 0.03 0.01 0.01 0.15 0.28 0.26 0.17 0.05 0.06 0.14 0.26 0.17 0.45 0.47 0.47 0.45 0.31 0.36
0.00 0.00 0.00 0.00 0.00 0.00 0.06 0.27 0.62 0.89 0.63 1.24 2.92 3.97 3.20 1.98 1.36 1.16 0.67 0.50 0.22 0.10 0.17 0.19 0.10 0.03 0.03 0.01 0.00 0.01 0.12 0.21 0.21 0.10 0.10 0.39 0.79 0.87 0.77 0.63 0.33 0.18 0.18 0.18
0.00 0.00 0.00 0.00 0.00 0.00 0.11 0.20 0.62 1.36 0.79 0.77 0.55 2.50 3.86 2.34 1.90 1.67 0.72 0.42 0.22 0.14 0.26 0.35 0.20 0.06 0.01 0.02 0.03 0.01 0.09 0.20 0.16 0.25 0.16 0.31 0.33 0.46 0.34 0.27 0.20 0.18 0.20 0.21
0.00 0.00 0.00 0.00 0.00 0.01 0.03 0.17 0.56 0.67 0.62 0.25 0.16 0.73 1.74 2.07 1.75 1.57 0.84 0.33 0.20 0.21 0.17 0.12 0.10 0.09 0.12 0.08 0.33 0.24 0.13 0.26 0.23 0.33 0.51 0.37 0.17 0.23 0.36 0.29 0.33 0.42 0.43 0.39
0.00 0.00 0.00 0.00 0.00 0.01 0.02 0.08 0.32 0.59 0.44 0.33 0.09 0.26 0.98 1.41 0.91 1.19 0.85 0.36 0.18 0.21 0.15 0.13 0.23 0.15 0.21 0.47 0.80 0.29 0.16 0.16 0.27 0.31 0.39 0.52 0.53 0.64 0.48 0.55 0.37 0.21 0.14 0.19
0.00 0.00 0.00 0.00 0.00 0.00 0.01 0.05 0.34 0.41 0.31 0.39 0.16 0.25 0.46 0.72 0.54 0.59 1.09 0.55 0.41 0.27 0.25 0.17 0.21 0.10 0.08 0.16 0.46 0.19 0.14 0.12 0.08 0.08 0.17 0.26 0.55 0.80 0.86 0.64 0.27 0.27 0.25 0.14
0.00 0.00 0.00 0.00 0.00 0.00 0.00 0.01 0.13 0.29 0.34 0.45 0.33 0.67 0.32 0.21 0.25 0.41 0.56 0.69 1.16 0.80 0.46 0.31 0.33 0.21 0.07 0.03 0.11 0.09 0.15 0.06 0.02 0.03 0.12 0.29 0.50 0.43 0.32 0.29 0.38 0.20 0.17 0.18
0.00 0.00 0.00 0.00 0.00 0.00 0.00 0.01 0.04 0.09 0.17 0.36 0.36 0.62 0.30 0.14 0.12 0.11 0.41 0.78 1.02 0.93 0.58 0.38 0.50 0.46 0.15 0.05 0.07 0.21 0.52 0.24 0.08 0.01 0.10 0.21 0.22 0.17 0.33 0.46 0.57 0.31 0.21 0.29
0.00 0.00 0.00 0.00 0.00 0.01 0.00 0.01 0.03 0.04 0.20 0.22 0.50 0.98 0.96 0.27 0.50 0.24 0.23 0.36 0.41 0.76 0.94 0.72 0.67 0.64 0.57 0.32 0.23 0.27 0.38 0.41 0.15 0.04 0.06 0.06 0.05 0.06 0.32 0.50 0.55 0.42 0.64 0.93
0.01 0.00 0.01 0.00 0.02 0.03 0.01 0.00 0.01 0.01 0.08 0.28 0.51 0.87 0.90 0.45 0.70 0.58 0.44 0.27 0.24 0.25 0.73 1.41 1.95 2.33 1.85 1.55 1.25 0.75 0.79 0.74 0.52 0.20 0.15 0.16 0.10 0.07 0.21 0.33 0.38 0.54 0.72 0.76
0.02 0.01 0.01 0.01 0.03 0.09 0.12 0.07 0.06 0.02 0.16 0.21 0.29 0.69 0.75 0.45 0.55 0.65 1.39 0.81 0.65 0.35 0.35 0.95 1.52 2.83 4.33 2.80 2.83 3.20 1.66 1.23 0.90 0.44 0.35 0.15 0.17 0.18 0.20 0.13 0.24 0.48 0.65 0.74
0.09 0.06 0.02 0.05 0.07 0.03 0.00 0.02 0.17 0.14 0.14 0.07 0.12 0.22 0.32 0.39 0.66 0.84 1.48 1.44 0.75 0.81 0.58 0.54 0.84 1.23 2.40 2.20 1.92 3.82 3.94 2.81 2.16 1.30 0.85 0.70 0.76 0.37 0.21 0.17 0.24 0.33 0.43 0.59
0.19 0.06 0.01 0.03 0.09 0.08 0.02 0.02 0.00 0.05 0.09 0.03 0.04 0.13 0.37 0.39 0.50 0.28 0.38 1.12 0.90 0.65 0.89 0.70 1.06 1.81 2.41 2.84 2.90 3.54 3.03 3.03 3.75 2.65 2.23 1.74 1.57 1.13 0.86 0.64 0.43 0.38 0.38 0.41
0.11 0.02 0.00 0.00 0.00 0.00 0.03 0.03 0.02 0.01 0.01 0.06 0.36 0.14 0.66 0.36 0.17 0.09 0.20 0.31 0.51 0.76 0.90 0.95 1.08 1.25 2.45 3.51 3.00 3.87 3.97 3.25 2.69 3.07 4.06 3.97 3.30 2.68 2.51 2.61 2.15 1.19 1.01 0.75
0.11 0.04 0.00 0.00 0.00 0.00 0.01 0.01 0.01 0.04 0.12 0.07 0.26 0.50 0.31 0.43 0.35 0.33 0.40 0.69 0.78 0.94 0.87 1.00 1.43 1.49 1.59 1.92 2.06 2.91 4.35 4.90 3.46 2.56 2.46 3.24 4.02 4.45 3.68 3.44 3.11 3.39 2.46 1.68
0.17 0.16 0.15 0.05 0.01 0.01 0.06 0.01 0.01 0.01 0.03 0.03 0.13 0.63 0.60 0.61 0.65 0.73 0.53 0.89 1.52 1.46 1.29 1.05 1.09 1.48 1.37 1.31 1.19 1.23 1.84 2.99 3.74 3.97 3.19 2.94 3.21 4.38 4.44 3.25 3.30 3.48 3.12 2.92
0.14 0.22 0.23 0.15 0.13 0.18 0.07 0.05 0.02 0.02 0.05 0.17 0.35 0.29 0.46 0.49 0.19 0.18 0.19 0.25 0.69 0.98 1.43 1.40 1.21 1.27 1.19 1.49 1.69 1.27 1.21 1.34 1.89 2.72 3.42 3.64 3.03 3.74 4.22 3.29 2.53 2.25 2.62 2.93
0.07 0.22 0.25 0.17 0.32 0.25 0.11 0.08 0.04 0.05 0.16 0.20 0.22 0.34 0.82 0.67 0.42 0.21 0.19 0.18 0.22 0.46 0.48 0.86 1.33 1.33 1.68 1.60 1.84 2.05 1.90 1.38 1.58 1.72 2.21 3.27 4.28 4.26 4.28 4.55 3.81 3.13 2.63 2.10
0.14 0.27 0.37 0.25 0.62 0.79 0.60 0.21 0.03 0.03 0.26 0.39 0.29 0.34 0.97 0.63 0.68 0.39 0.14 0.10 0.12 0.19 0.24 0.25 0.35 0.74 1.15 1.89 2.05 2.26 2.60 2.07 1.55 1.55 1.70 1.69 1.94 2.68 3.23 3.80 3.92 3.67 3.94 3.63
0.53 0.52 0.44 0.38 0.70 0.71 0.43 0.20 0.04 0.19 0.29 0.20 0.22 0.47 0.65 0.50 0.47 0.55 0.25 0.17 0.05 0.04 0.06 0.08 0.09 0.22 0.53 0.80 1.20 1.67 1.56 1.70 2.25 2.27 2.19 1.93 1.83 1.95 2.01 2.23 2.36 2.73 2.59 2.44
0.79 0.95 0.69 0.55 0.74 0.90 0.50 0.44 0.33 0.25 0.09 0.14 0.22 0.44 0.71 0.59 0.61 0.44 0.30 0.14 0.07 0.04 0.06 0.04 0.06 0.18 0.25 0.45 0.75 0.99 1.22 1.21 1.88 2.48 2.98 3.25 3.27 3.09 2.50 2.28 2.72 2.72 2.36 2.28
0.61 0.58 0.63 0.72 0.86 0.86 0.54 0.43 0.16 0.06 0.10 0.14 0.16 0.32 0.60 0.61 0.47 0.43 0.34 0.14 0.09 0.06 0.04 0.04 0.08 0.11 0.23 0.28 0.33 0.48 0.69 0.97 1.03 1.38 1.93 2.12 2.65 2.89 2.64 2.76 2.93 2.67 2.30 1.94
0.79 0.58 0.68 0.68 0.61 0.68 0.63 0.46 0.38 0.17 0.17 0.16 0.16 0.22 0.37 0.37 0.36 0.28 0.30 0.26 0.14 0.09 0.07 0.08 0.07 0.08 0.09 0.17 0.26 0.29 0.35 0.45 0.45 0.56 0.73 0.74 0.73 0.89 0.93 0.92 1.01 1.16 1.19 1.13
1.68 1.33 0.99 0.88 0.97 1.06 1.04 0.69 0.51 0.52 0.44 0.29 0.32 0.29 0.29 0.30 0.34 0.36 0.31 0.32 0.30 0.20 0.14 0.11 0.08 0.04 0.04 0.10 0.26 0.31 0.42 0.60 0.51 0.65 0.47 0.48 0.58 0.71 0.99 1.21 1.05 0.81 0.73 0.83
2.34 2.11 1.91 1.65 1.50 1.64 1.24 0.98 0.60 0.53 0.55 0.53 0.46 0.58 0.58 0.51 0.44 0.41 0.44 0.41 0.39 0.45 0.37 0.49 0.47 0.45 0.43 0.40 0.41 0.46 0.53 0.68 0.63 0.63 0.63 0.66 0.60 0.63 0.77 0.84 1.05 1.40 1.66 1.67

GFSCGP_prec_precacc_174.txt.gz
Total_Precipitation_Accumulation
0.00 0.00 0.00 0.00 0.00 0.01 0.17 0.41 1.20 1.86 2.16 3.33 3.08 2.32 1.37 1.15 0.90 1.23 0.83 0.17 0.06 0.10 0.06 0.02 0.07 0.10 0.03 0.02 0.03 0.10 0.24 0.27 0.22 0.10 0.11 0.16 0.13 0.09 0.14 0.33 0.33 0.41 0.61 0.53
0.00 0.00 0.00 0.00 0.00 0.02 0.03 0.37 0.92 1.22 1.44 2.31 3.67 2.77 1.70 1.29 0.77 0.71 1.12 0.46 0.19 0.17 0.16 0.03 0.02 0.03 0.03 0.01 0.01 0.15 0.28 0.26 0.17 0.05 0.06 0.14 0.26 0.17 0.45 0.47 0.47 0.45 0.31 0.36
0.00 0.00 0.00 0.00 0.00 0.00 0.06 0.27 0.62 0.89 0.63 1.24 2.92 3.97 3.20 1.98 1.36 1.16 0.67 0.50 0.22 0.10 0.17 0.19 0.10 0.03 0.03 0.01 0.00 0.01 0.12 0.21 0.21 0.10 0.10 0.39 0.79 0.87 0.77 0.63 0.33 0.18 0.18 0.18
0.00 0.00 0.00 0.00 0.00 0.00 0.11 0.20 0.62 1.36 0.79 0.77 0.55 2.50 3.86 2.34 1.90 1.67 0.72 0.42 0.22 0.14 0.26 0.35 0.20 0.06 0.01 0.02 0.03 0.01 0.09 0.20 0.16 0.25 0.16 0.31 0.33 0.46 0.34 0.27 0.20 0.18 0.20 0.21
0.00 0.00 0.00 0.00 0.00 0.01 0.03 0.17 0.56 0.67 0.62 0.26 0.16 0.73 1.74 2.07 1.75 1.57 0.84 0.33 0.20 0.21 0.17 0.12 0.10 0.09 0.12 0.08 0.33 0.24 0.13 0.26 0.23 0.33 0.51 0.37 0.17 0.23 0.36 0.29 0.33 0.42 0.43 0.39
0.00 0.00 0.00 0.00 0.00 0.01 0.02 0.08 0.32 0.59 0.46 0.34 0.09 0.26 0.98 1.41 0.91 1.19 0.85 0.36 0.18 0.21 0.15 0.13 0.23 0.15 0.21 0.47 0.80 0.29 0.16 0.16 0.27 0.31 0.39 0.52 0.53 0.64 0.48 0.55 0.37 0.21 0.14 0.19
0.00 0.00 0.00 0.00 0.00 0.00 0.01 0.05 0.34 0.41 0.31 0.39 0.16 0.25 0.46 0.72 0.54 0.59 1.09 0.55 0.41 0.27 0.25 0.17 0.21 0.10 0.08 0.16 0.46 0.20 0.16 0.14 0.10 0.08 0.17 0.26 0.55 0.80 0.86 0.64 0.27 0.27 0.25 0.14
0.00 0.00 0.00 0.00 0.00 0.00 0.00 0.01 0.13 0.29 0.34 0.45 0.33 0.67 0.32 0.21 0.25 0.41 0.56 0.69 1.16 0.80 0.46 0.31 0.33 0.21 0.07 0.03 0.11 0.09 0.19 0.09 0.04 0.04 0.12 0.29 0.50 0.43 0.32 0.29 0.38 0.20 0.17 0.18
0.00 0.00 0.00 0.00 0.00 0.00 0.00 0.01 0.04 0.09 0.17 0.36 0.36 0.62 0.30 0.14 0.12 0.11 0.41 0.78 1.02 0.93 0.58 0.38 0.50 0.46 0.15 0.06 0.07 0.21 0.54 0.27 0.11 0.02 0.10 0.21 0.22 0.17 0.33 0.46 0.57 0.31 0.21 0.29
0.00 0.00 0.00 0.00 0.00 0.01 0.00 0.01 0.03 0.04 0.20 0.22 0.50 0.98 0.96 0.27 0.50 0.24 0.23 0.36 0.41 0.76 0.94 0.72 0.67 0.64 0.57 0.32 0.23 0.27 0.38 0.41 0.18 0.08 0.08 0.06 0.05 0.06 0.32 0.50 0.55 0.43 0.64 0.93
0.01 0.00 0.01 0.00 0.02 0.03 0.01 0.00 0.01 0.01 0.08 0.28 0.51 0.87 0.90 0.45 0.70 0.58 0.44 0.27 0.24 0.25 0.73 1.41 1.95 2.33 1.85 1.55 1.25 0.75 0.79 0.74 0.53 0.21 0.18 0.17 0.10 0.07 0.21 0.33 0.38 0.56 0.74 0.76
0.02 0.01 0.01 0.01 0.03 0.09 0.12 0.07 0.06 0.02 0.16 0.21 0.29 0.69 0.75 0.45 0.55 0.65 1.39 0.81 0.65 0.35 0.35 0.95 1.52 2.83 4.33 2.80 2.83 3.20 1.66 1.23 0.90 0.45 0.39 0.16 0.17 0.18 0.20 0.13 0.24 0.49 0.66 0.75
0.09 0.06 0.02 0.05 0.07 0.03 0.00 0.02 0.17 0.14 0.14 0.07 0.12 0.22 0.32 0.39 0.66 0.84 1.48 1.44 0.75 0.81 0.58 0.54 0.84 1.23 2.40 2.20 1.92 3.82 3.95 2.82 2.16 1.30 0.85 0.71 0.77 0.38 0.22 0.18 0.24 0.35 0.45 0.59
0.19 0.06 0.01 0.03 0.09 0.08 0.02 0.02 0.00 0.05 0.09 0.03 0.04 0.13 0.37 0.39 0.50 0.28 0.38 1.12 0.90 0.65 0.89 0.70 1.06 1.81 2.41 2.84 2.90 3.54 3.03 3.03 3.75 2.65 2.23 1.74 1.57 1.14 0.91 0.74 0.62 0.52 0.47 0.42
0.11 0.02 0.00 0.00 0.00 0.00 0.03 0.03 0.02 0.01 0.01 0.06 0.36 0.14 0.66 0.36 0.17 0.09 0.20 0.31 0.51 0.76 0.90 0.95 1.08 1.25 2.45 3.51 3.00 3.87 3.97 3.25 2.69 3.07 4.06 4.00 3.32 2.68 2.52 2.71 2.40 1.47 1.10 0.78
0.11 0.04 0.00 0.00 0.00 0.00 0.01 0.01 0.01 0.04 0.12 0.07 0.26 0.50 0.31 0.43 0.35 0.33 0.40 0.69 0.78 0.94 0.87 1.00 1.43 1.49 1.59 1.92 2.06 2.91 4.35 4.90 3.46 2.56 2.46 3.26 4.05 4.51 3.73 3.46 3.19 3.51 2.54 1.69
0.17 0.16 0.15 0.05 0.01 0.01 0.06 0.01 0.01 0.01 0.03 0.03 0.13 0.63 0.60 0.61 0.65 0.73 0.53 0.89 1.52 1.46 1.29 1.05 1.09 1.48 1.37 1.31 1.19 1.23 1.84 2.99 3.74 3.97 3.19 2.94 3.23 4.46 4.55 3.35 3.42 3.67 3.25 2.95
0.14 0.22 0.23 0.15 0.13 0.18 0.07 0.05 0.02 0.02 0.05 0.17 0.35 0.29 0.46 0.49 0.19 0.18 0.19 0.25 0.69 0.98 1.43 1.40 1.21 1.27 1.19 1.49 1.69 1.27 1.21 1.34 1.89 2.72 3.42 3.64 3.03 3.75 4.29 3.45 2.71 2.48 2.79 3.07
0.07 0.22 0.25 0.17 0.32 0.25 0.11 0.08 0.04 0.05 0.16 0.20 0.22 0.34 0.82 0.67 0.42 0.21 0.19 0.18 0.22 0.46 0.48 0.86 1.33 1.33 1.68 1.60 1.84 2.05 1.90 1.38 1.58 1.72 2.21 3.27 4.28 4.27 4.29 4.56 3.83 3.16 2.71 2.20
0.14 0.27 0.37 0.25 0.62 0.79 0.60 0.21 0.03 0.03 0.26 0.39 0.29 0.34 0.97 0.63 0.68 0.39 0.14 0.10 0.12 0.19 0.24 0.25 0.35 0.74 1.15 1.89 2.05 2.26 2.60 2.07 1.55 1.55 1.70 1.69 1.94 2.69 3.23 3.81 3.92 3.68 3.95 3.65
0.53 0.52 0.44 0.38 0.70 0.71 0.43 0.20 0.04 0.19 0.29 0.20 0.22 0.47 0.65 0.50 0.47 0.55 0.25 0.17 0.05 0.04 0.06 0.08 0.09 0.22 0.53 0.80 1.20 1.67 1.56 1.70 2.25 2.27 2.19 1.93 1.83 1.95 2.01 2.23 2.36 2.73 2.59 2.44
0.79 0.95 0.69 0.55 0.74 0.90 0.50 0.44 0.33 0.25 0.09 0.14 0.22 0.44 0.71 0.59 0.61 0.44 0.30 0.14 0.07 0.04 0.06 0.04 0.06 0.18 0.25 0.45 0.75 0.99 1.22 1.21 1.88 2.48 2.98 3.25 3.27 3.09 2.50 2.28 2.72 2.72 2.36 2.28
0.62 0.58 0.63 0.72 0.86 0.86 0.54 0.43 0.16 0.06 0.10 0.14 0.16 0.32 0.60 0.61 0.47 0.43 0.34 0.14 0.09 0.06 0.04 0.04 0.08 0.11 0.23 0.28 0.33 0.48 0.69 0.97 1.03 1.38 1.93 2.12 2.65 2.89 2.64 2.76 2.93 2.67 2.30 1.94
0.81 0.60 0.69 0.69 0.62 0.68 0.63 0.46 0.38 0.17 0.17 0.16 0.16 0.22 0.37 0.37 0.36 0.28 0.30 0.26 0.14 0.09 0.07 0.08 0.07 0.09 0.10 0.17 0.26 0.29 0.35 0.45 0.45 0.56 0.73 0.74 0.73 0.89 0.93 0.93 1.01 1.17 1.20 1.14
1.70 1.36 1.00 0.89 0.98 1.07 1.04 0.69 0.51 0.52 0.44 0.29 0.32 0.29 0.29 0.30 0.34 0.36 0.31 0.32 0.30 0.20 0.14 0.12 0.10 0.06 0.05 0.10 0.26 0.31 0.42 0.60 0.51 0.65 0.47 0.48 0.58 0.71 0.99 1.21 1.05 0.82 0.73 0.84
2.34 2.11 1.91 1.65 1.50 1.64 1.24 0.98 0.60 0.53 0.55 0.53 0.46 0.58 0.58 0.51 0.44 0.41 0.44 0.41 0.39 0.45 0.37 0.50 0.49 0.45 0.43 0.40 0.41 0.46 0.53 0.68 0.63 0.63 0.63 0.66 0.60 0.63 0.77 0.84 1.05 1.40 1.66 1.68